星链-31547 (STARLINK-31547 )

导读 | 星芒AI

STARLINK-31547 是 SpaceX Starlink 卫星互联网项目中的一颗低轨卫星,属于 Starlink 群体的组成部分。该卫星由 SpaceX 制造并发射,旨在为全球用户提供高速互联网接入服务。它运行在约 550 公里的近地轨道上,采用先进通信技术,支持宽带数据传输。Starlink 项目致力于改善偏远地区的网络覆盖,减少数字鸿沟。STARLINK-31547 的部署有助于增强 Starlink 网络的稳定性和覆盖范围。

基本信息
目录编号:
59364
目录名称:
STARLINK-31547
国际标识:
2024-060S
轨道中心:
EARTH
卫星名称:
星链-31547
卫星全名:
星链-31547 (STARLINK-31547 )
卫星状态:
在轨 (已飞行629 天)
发射日期:
2024-03-31 UTC
国别 :
美国 (US)
星等 :
--
轨道信息
数据来源 国际轨道数据
星历时间: 2025-12-19T14:15:39+0800
18小时前
查看轨道信息
半长轴: 6861.16km
偏心率: 0.0001447
轨道倾角: 43.005°
近地点辐角 272.517°
升交点赤经 342.715°
平近点角 87.552°
近地点: 482.03km
远地点: 484.016km
周期: 94.266分钟
每日圈数: 15.275889
详细信息
固有亮度:
5
最大亮度:
0.3
卫星平台:
Starlink v2.0 mini
覆盖范围:
全球
运营商:
太空探索技术公司
运营商所在国:
美国
制造商(研发单位):
太空探索技术公司
制造商所在国:
美国
使用方式:
暂无
卫星简介
星链(Starlink)计划是由太空探索技术公司(SpaceX)提出的一个巨型低轨卫星互联网星座项目,计划在2019年至2024年间在太空搭建由约1.2万颗卫星组成的“星链”网络,其中1584颗将部署在地球上空550千米处的近地轨道,并从2020年开始工作。该卫星仍在工作。
2D轨道图
3D轨道图
轨道高度分析图
轨道倾角分析图
轨道综合分析图
查看轨道综合分析图